San Jose, CA

7:21 AM PDT on May 30, 2017 (GMT -0700)
San Jose International

Weather History for KSJC - January, 2014

Change the Weather History Date:

Tuesday, January 7, 2014

  Actual Average Record
Temperature  
Mean Temperature 54 °F 49 °F  
Max Temperature 63 °F 57 °F 71 °F (1962)
Min Temperature 44 °F 41 °F 26 °F (1895)
Degree Days  
Heating Degree Days 11 16  
Month to date heating degree days 95 112  
Since 1 July heating degree days 1002 986  
Cooling Degree Days 0 0  
Month to date cooling degree days 0 0  
Year to date cooling degree days 0 0  
Growing Degree Days 4 (Base 50)    
Moisture  
Dew Point 39 °F    
Average Humidity 58    
Maximum Humidity 80    
Minimum Humidity 36    
Precipitation  
Precipitation 0.00 in 0.10 in 0.85 in (1940)
Month to date precipitation 0.00 0.67  
Year to date precipitation 0.00 0.67  
Since 1 July precipitation 1.56  
Sea Level Pressure  
Sea Level Pressure 30.18 in    
Wind  
Wind Speed 3 mph (SW)    
Max Wind Speed 10 mph    
Max Gust Speed 12 mph    
Visibility 10 miles    
Events      
T = Trace of Precipitation, MM = Missing Value Source: NWS Daily Summary

Daily Weather History Graph

Daily Weather History Graph

Search for Another Location

Airport or City:

Trip Planner

Search our weather history database for the weather conditions in past years. The results will help you decide how hot, cold, wet, or windy it might be!

Date:

Astronomy

Jan. 07, 2014 Rise Set
Actual Time 7:22 AM PST 5:06 PM PST
Civil Twilight 6:53 AM PST 5:34 PM PST
Nautical Twilight 6:21 AM PST 6:07 PM PST
Astronomical Twilight 5:49 AM PST 6:38 PM PST
Moon 11:23 AM PST (1/7) No Moon Set
Length of Visible Light 10h 41m
Length of Day
9h 43m
Waxing Crescent, 46% of the Moon is Illuminated
Jan 7
Waxing Crescent
Jan 7
First Quarter
Jan 15
Full
Jan 23
Last Quarter
Jan 30
New

Hourly Weather History & Observations

Time (PST) Temp. Windchill Dew Point Humidity Pressure Visibility Wind Dir Wind Speed Gust Speed Precip Events Conditions
12:53 AM 48.9 °F - 37.0 °F 64% 30.18 in 9.0 mi Calm Calm - N/A   Clear
1:53 AM 48.0 °F - 39.0 °F 71% 30.19 in 10.0 mi Calm Calm - N/A   Clear
2:53 AM 46.9 °F - 37.9 °F 71% 30.18 in 10.0 mi East 3.5 mph - N/A   Clear
3:53 AM 46.9 °F - 37.9 °F 71% 30.18 in 10.0 mi Calm Calm - N/A   Clear
4:53 AM 45.0 °F 42.6 °F 37.0 °F 74% 30.17 in 10.0 mi SE 4.6 mph - N/A   Clear
5:53 AM 45.0 °F - 37.0 °F 74% 30.17 in 10.0 mi Calm Calm - N/A   Clear
6:53 AM 45.0 °F - 37.0 °F 74% 30.17 in 10.0 mi Calm Calm - N/A   Mostly Cloudy
7:53 AM 46.0 °F 44.8 °F 37.0 °F 71% 30.17 in 9.0 mi SSE 3.5 mph - N/A   Overcast
8:53 AM 48.9 °F - 36.0 °F 61% 30.18 in 10.0 mi ESE 5.8 mph - N/A   Overcast
9:53 AM 51.1 °F - 35.1 °F 54% 30.19 in 10.0 mi SSW 3.5 mph - N/A   Overcast
10:53 AM 54.0 °F - 39.0 °F 57% 30.21 in 8.0 mi NW 9.2 mph - N/A   Overcast
11:53 AM 55.9 °F - 39.0 °F 53% 30.19 in 8.0 mi NW 5.8 mph - N/A   Overcast
12:53 PM 57.0 °F - 37.9 °F 49% 30.17 in 8.0 mi Calm Calm - N/A   Mostly Cloudy
1:53 PM 60.1 °F - 37.0 °F 42% 30.14 in 10.0 mi WSW 3.5 mph - N/A   Mostly Cloudy
2:53 PM 62.1 °F - 35.1 °F 37% 30.13 in 10.0 mi West 4.6 mph - N/A   Scattered Clouds
3:53 PM 61.0 °F - 36.0 °F 39% 30.14 in 10.0 mi WNW 9.2 mph - N/A   Scattered Clouds
4:53 PM 57.0 °F - 39.9 °F 53% 30.15 in 10.0 mi WNW 8.1 mph - N/A   Scattered Clouds
5:53 PM 55.0 °F - 41.0 °F 59% 30.15 in 10.0 mi West 5.8 mph - N/A   Partly Cloudy
6:53 PM 54.0 °F - 41.0 °F 62% 30.14 in 10.0 mi Calm Calm - N/A   Clear
7:53 PM 52.0 °F - 41.0 °F 66% 30.16 in 10.0 mi Calm Calm - N/A   Clear
8:53 PM 50.0 °F - 41.0 °F 71% 30.18 in 10.0 mi Calm Calm - N/A   Partly Cloudy
9:44 PM 48.2 °F - 39.2 °F 71% 30.20 in 10.0 mi SSW 3.5 mph - N/A   Mostly Cloudy
9:53 PM 48.9 °F - 39.9 °F 71% 30.21 in 10.0 mi Calm Calm - N/A   Mostly Cloudy
10:53 PM 50.0 °F - 44.1 °F 80% 30.22 in 10.0 mi Calm Calm - N/A   Mostly Cloudy
11:53 PM 50.0 °F - 42.1 °F 74% 30.21 in 10.0 mi South 3.5 mph - N/A   Mostly Cloudy